Torna al catalogo

XINGYUN-2 01

AttivoComunicazioniSSO
NORAD 45602·PAYLOAD·🇨🇳 China

Lanciato May 12, 2020 da Jiuquan Satellite Launch Center

Loading…

Prossimi Passaggi (prossime 24 ore)

TLE

AggiornatoSource: Space-Track

Epoca: Sep 14, 2026, 22:46 UTC

1 45602U 20028A   26257.94898557  .00001030  00000-0  63497-4 0  9993
2 45602  97.4947 248.6266 0007194 253.1475 106.8966 15.12131337348403

Traccia XINGYUN-2 01 in tempo reale con AllMySat

Download on the App Store